Вернуться в каталог

NOAA 17 DEB

АктивенPO
NORAD 49478·DEBRIS·🇺🇸 United States

Запущен Jun 24, 2002 с Vandenberg Space Force Base

Loading…

Ближайшие Пролёты (ближайшие 24 часа)

TLE

СвежийSource: Space-Track

Эпоха: Sep 14, 2026, 02:03 UTC

1 49478U 02032DG  26257.08584817  .00008097  00000-0  13802-2 0  9992
2 49478  98.8489 298.8868 0004357 247.1030 112.9714 14.69292823277417

Отслеживайте NOAA 17 DEB в реальном времени с AllMySat

Download on the App Store